[[{"header":{"parameterUnit":"m.s-1","parameterCategory":1,"la1":30.2991,"la2":30.254,"lo1":-89.0895,"lo2":-89.0444,"dy":0.0017,"dx":0.0017,"nx":28,"ny":28,"refTime":"2024-07-04T21:00:00:Z","depth":0,"parameterNumber":2,"parameterNumberName":"U-component_of_WINDS"},"data":[0,0,0,0,0,0,0,0,0,0,0,0,0,0,0,0,0,0,0,0,0,0,0,0,0,0,0,0,0,0,0,0,0,0,0,0,0,0,0,0,0,0,0,0,0,0,0,0,0,0,0,0,0,0,0,0,0,0,1.2079,1.2079,0,1.2145,1.2145,1.2146,1.2125,1.2124,1.2123,1.2121,1.2188,1.2191,1.2194,0,0,0,0,0,0,0,0,0,0,0,0,0,1.1934,1.1937,1.2078,1.2079,1.208,1.2144,1.2145,1.2146,1.2126,1.2124,1.2122,1.2121,1.2187,1.2191,1.2194,0,0,0,0,0,0,0,0,0,0,0,0,0,1.1998,1.1938,1.2078,1.2078,1.2078,1.2144,1.2145,1.2146,1.2126,1.2124,1.2122,1.212,1.2186,1.219,1.2195,1.2265,0,0,1.2209,1.2211,0,0,0,0,0,0,0,0,1.1995,1.2004,1.2077,1.2078,1.2079,1.2125,1.2119,1.2186,1.2126,1.2108,1.2121,1.2119,1.2169,1.2175,1.2191,1.2269,1.2271,1.2209,1.2212,1.2214,1.2216,0,0,0,0,0,0,0,1.199,1.2001,1.2105,1.2078,1.2079,1.2074,1.2081,1.2132,1.2149,1.2109,1.2108,1.2116,1.2169,1.2187,1.2193,1.2272,1.2209,1.2213,1.2216,1.2218,1.2412,1.2414,0,0,0,0,0,0,1.1985,1.1997,1.2102,1.2107,1.2031,1.2078,1.2086,1.2112,1.2149,1.2152,1.2118,1.2115,1.218,1.2188,1.2195,1.228,1.2214,1.2219,1.2221,1.2409,1.2412,1.2415,0,0,0,0,0,0,1.1982,1.1995,1.21,1.2052,1.2064,1.2083,1.2112,1.2114,1.2133,1.2155,1.2158,1.2133,1.2179,1.2189,1.2248,1.2282,1.2221,1.2225,1.2406,1.241,1.2413,1.2451,0,0,0,0,0,0,1.1978,1.1994,1.2021,1.2052,1.2067,1.2152,1.2115,1.2117,1.2141,1.2138,1.217,1.2174,1.2178,1.2242,1.2253,1.2288,1.2228,1.2403,1.2408,1.2412,1.2447,1.2456,1.2463,0,0,0,0,0,1.1973,1.2028,1.2022,1.2035,1.2101,1.2154,1.2162,1.2166,1.2144,1.2171,1.2185,1.2173,1.2277,1.2248,1.226,1.2297,1.2401,1.2407,1.2412,1.2443,1.2454,1.2463,0,0,0,0,0,0,1.1999,1.2032,1.2026,1.2093,1.2121,1.215,1.2184,1.2177,1.2212,1.2207,1.221,1.2218,1.2279,1.2294,1.2261,1.2368,1.2336,1.2344,1.2355,1.2366,1.2374,1.2368,1.2232,0,0,0,0,0,1.2013,1.2054,1.208,1.2137,1.2151,1.2166,1.2189,1.219,1.2218,1.223,1.2249,1.2277,1.2316,1.2342,1.2379,1.2449,1.2456,1.2481,1.2489,1.2495,1.2502,1.2541,1.2552,1.2432,1.2432,1.2432,0,0,1.2042,1.2065,1.209,1.2143,1.2164,1.2206,1.2176,1.2221,1.2252,1.2237,1.2294,1.2309,1.2341,1.2407,1.2436,1.2421,1.2537,1.2502,1.2507,1.251,1.2548,1.2559,1.2569,1.2436,1.2435,1.2434,0,0,1.2115,1.2136,1.2186,1.2209,1.2243,1.2252,1.2264,1.2296,1.2305,1.2363,1.2353,1.239,1.2457,1.2481,1.2501,1.2585,1.2575,1.2598,1.2639,1.2677,1.2686,1.2695,1.2725,1.2735,1.2604,1.2604,1.2605,0,1.2146,1.2208,1.2213,1.2259,1.2283,1.2272,1.2323,1.2345,1.2389,1.2405,1.2388,1.2473,1.2493,1.2564,1.2585,1.2602,1.2616,1.2593,1.2685,1.2693,1.2701,1.273,1.2741,1.2607,1.2607,1.2606,1.2606,0,1.2245,1.2289,1.2325,1.2368,1.2396,1.2445,1.2456,1.2484,1.2483,1.2495,1.2554,1.2579,1.2622,1.2639,1.2638,1.271,1.27,1.2684,1.2651,1.2715,1.2742,1.2753,1.261,1.261,1.2609,1.2608,0,0,1.2334,1.2381,1.2394,1.2414,1.2452,1.2486,1.2534,1.2576,1.26,1.2631,1.2672,1.273,1.2716,1.2739,1.2741,1.2774,1.284,1.2754,1.2755,1.2769,1.2921,1.2932,1.2945,1.2834,1.2836,1.2837,1.2918,0,1.241,1.2495,1.2501,1.2578,1.2619,1.2611,1.2653,1.268,1.2693,1.2729,1.2743,1.2784,1.2762,1.2776,1.2809,1.2825,1.287,1.2819,1.2871,1.2873,1.2862,1.2959,1.2971,1.3046,1.2929,1.2931,1.2932,0,1.2509,1.2545,1.2626,1.2659,1.2676,1.2714,1.2753,1.2789,1.282,1.2827,1.2854,1.2852,1.2902,1.2869,1.2938,1.2903,1.2925,1.2936,1.2939,1.2943,1.2905,1.2965,1.307,1.3081,1.2949,1.2947,1.2946,0,1.2566,1.2634,1.2692,1.2709,1.2749,1.2776,1.2793,1.2823,1.2848,1.2883,1.29,1.294,1.2962,1.2993,1.3002,1.2977,1.3071,1.3038,1.3077,1.3077,1.3096,1.3095,1.3205,1.3112,1.3112,1.3112,1.3111,0,1.2649,1.2699,1.2718,1.2753,1.2809,1.2816,1.2871,1.2887,1.2914,1.2953,1.2948,1.2984,1.2994,1.3032,1.3039,1.3095,1.3105,1.3112,1.3113,1.3112,1.3111,1.3125,1.312,1.3115,1.3114,1.3113,1.3113,0,1.2721,1.2736,1.2798,1.2832,1.2841,1.2881,1.2909,1.2943,1.2956,1.3005,1.3017,1.3036,1.3081,1.3093,1.3146,1.3151,1.3217,1.3214,1.3207,1.3206,1.3245,1.3241,1.3368,1.3385,1.3281,1.3282,1.3283,0,1.2773,1.2811,1.285,1.2875,1.2895,1.2936,1.2962,1.2972,1.2999,1.3039,1.3069,1.3113,1.3148,1.322,1.3239,1.328,1.3277,1.3319,1.3283,1.3281,1.3278,1.3275,1.3279,1.3325,1.3327,1.3327,1.3328,0,1.2863,1.2869,1.2907,1.2949,1.2981,1.3014,1.3045,1.3067,1.3081,1.3112,1.3158,1.3186,1.3241,1.3285,1.3327,1.3345,1.3339,1.334,1.3351,1.3349,1.3343,1.3347,1.3224,1.3336,1.3336,1.3335,1.3334,1.3334,1.2926,1.296,1.2993,1.3036,1.3062,1.3092,1.3126,1.3143,1.3182,1.3228,1.3232,1.3282,1.3313,1.3369,1.339,1.3429,1.3416,1.3433,1.3437,1.344,1.3443,1.3338,1.3437,1.3436,1.3436,1.3436,1.3436,0,1.3015,1.3037,1.3077,1.3122,1.3156,1.3149,1.3184,1.3213,1.3258,1.3288,1.3324,1.3377,1.3421,1.3444,1.3487,1.3514,1.3512,1.3525,1.3522,1.3527,1.3452,1.3438,1.3525,1.3525,1.3525,1.3525,1.3525,1.3525,1.3066,1.3123,1.3134,1.3204,1.3225,1.3274,1.3295,1.3323,1.3347,1.3408,1.3444,1.3459,1.3487,1.3532,1.3572,1.3578,1.3593,1.3607,1.3611,1.3541,1.3532,1.3523,1.351,1.3611,1.3611,1.3683,1.3683,1.3684]},{"header":{"parameterUnit":"m.s-1","parameterCategory":1,"la1":30.2991,"la2":30.254,"lo1":-89.0895,"lo2":-89.0444,"dy":0.0017,"dx":0.0017,"nx":28,"ny":28,"refTime":"2024-07-04T21:00:00:Z","depth":0,"parameterNumber":3,"parameterNumberName":"V-component_of_WINDS"},"data":[0,0,0,0,0,0,0,0,0,0,0,0,0,0,0,0,0,0,0,0,0,0,0,0,0,0,0,0,0,0,0,0,0,0,0,0,0,0,0,0,0,0,0,0,0,0,0,0,0,0,0,0,0,0,0,0,0,0,3.5811,3.5811,0,3.5808,3.5808,3.5808,3.578,3.5779,3.5778,3.5778,3.5772,3.5772,3.5773,0,0,0,0,0,0,0,0,0,0,0,0,0,3.5785,3.5785,3.5811,3.5811,3.5811,3.5808,3.5808,3.5808,3.578,3.5779,3.5778,3.5777,3.5772,3.5772,3.5773,0,0,0,0,0,0,0,0,0,0,0,0,0,3.579,3.5785,3.5811,3.5796,3.5795,3.5808,3.5808,3.5808,3.578,3.5779,3.5778,3.5777,3.5772,3.5772,3.5773,3.5799,0,0,3.5775,3.5776,0,0,0,0,0,0,0,0,3.579,3.5791,3.5798,3.5797,3.5796,3.5793,3.5797,3.5805,3.578,3.5786,3.5778,3.5776,3.578,3.578,3.5782,3.5799,3.5799,3.5775,3.5776,3.5776,3.5777,0,0,0,0,0,0,0,3.579,3.5791,3.581,3.5798,3.5797,3.5788,3.5788,3.5798,3.5789,3.5785,3.5783,3.5783,3.5779,3.5781,3.5781,3.5799,3.5775,3.5776,3.5777,3.5777,3.5832,3.5833,0,0,0,0,0,0,3.5792,3.5791,3.581,3.581,3.579,3.5789,3.5789,3.5795,3.5788,3.5786,3.5784,3.5782,3.578,3.578,3.5781,3.5808,3.5776,3.5777,3.5777,3.5831,3.5832,3.5833,0,0,0,0,0,0,3.5792,3.5794,3.581,3.58,3.5801,3.5791,3.5798,3.5796,3.5798,3.5788,3.5785,3.5789,3.5779,3.578,3.5794,3.5807,3.5777,3.5778,3.583,3.5831,3.5833,3.5863,0,0,0,0,0,0,3.5791,3.5794,3.5805,3.58,3.5802,3.5825,3.5799,3.5796,3.58,3.5797,3.5791,3.5789,3.5778,3.5793,3.5795,3.5808,3.5779,3.5829,3.5831,3.5832,3.5861,3.5866,3.587,0,0,0,0,0,3.579,3.5814,3.5806,3.5809,3.5816,3.5826,3.5826,3.5814,3.5801,3.5811,3.5804,3.5789,3.5806,3.5795,3.5796,3.581,3.5828,3.583,3.5832,3.5859,3.5865,3.587,0,0,0,0,0,0,3.5821,3.5814,3.5804,3.5828,3.5828,3.5821,3.5833,3.5822,3.5824,3.5821,3.5805,3.5804,3.582,3.5816,3.5804,3.5832,3.5814,3.5817,3.5834,3.5839,3.5843,3.5843,3.5779,0,0,0,0,0,3.5831,3.5841,3.5833,3.5855,3.5855,3.5844,3.5848,3.5839,3.5837,3.5837,3.5831,3.5829,3.5833,3.5836,3.584,3.5861,3.5857,3.587,3.5875,3.5878,3.588,3.5887,3.5892,3.5841,3.5841,3.5841,0,0,3.5851,3.5848,3.5855,3.5861,3.5859,3.5867,3.5844,3.5855,3.586,3.5838,3.585,3.5846,3.5842,3.5859,3.5866,3.5856,3.5894,3.5881,3.5884,3.5884,3.589,3.5895,3.5899,3.5842,3.5842,3.5842,0,0,3.589,3.5891,3.5907,3.5906,3.5904,3.5896,3.59,3.5894,3.589,3.5903,3.5885,3.589,3.5899,3.5896,3.5895,3.593,3.5916,3.5932,3.5954,3.5961,3.5964,3.5968,3.5977,3.5981,3.5934,3.5934,3.5934,0,3.5915,3.5928,3.5916,3.5927,3.5928,3.5909,3.5923,3.5922,3.5921,3.5922,3.5911,3.5919,3.5916,3.5929,3.5938,3.5939,3.594,3.5932,3.5965,3.5969,3.5971,3.598,3.5984,3.5936,3.5936,3.5936,3.5935,0,3.5957,3.5966,3.5979,3.5978,3.5981,3.5994,3.5981,3.5985,3.5975,3.5967,3.5978,3.5973,3.5973,3.5976,3.5967,3.5987,3.5981,3.5968,3.5949,3.5978,3.5986,3.5989,3.5938,3.5938,3.5937,3.5937,0,0,3.6017,3.6007,3.6012,3.601,3.6005,3.6011,3.6021,3.6022,3.6024,3.6023,3.6029,3.6036,3.6023,3.6022,3.6012,3.6018,3.6042,3.6004,3.6004,3.6009,3.606,3.6068,3.6073,3.6033,3.6033,3.6034,3.606,0,3.6052,3.607,3.6058,3.6077,3.6083,3.6063,3.6072,3.6068,3.6061,3.6063,3.6055,3.6058,3.6043,3.6042,3.6047,3.6038,3.6052,3.6036,3.6035,3.6036,3.6035,3.6077,3.6087,3.6111,3.6063,3.6064,3.6064,0,3.6097,3.6097,3.6117,3.6107,3.6109,3.6118,3.6115,3.6119,3.6113,3.6107,3.6105,3.6092,3.6099,3.6081,3.6088,3.6078,3.6076,3.6071,3.6072,3.607,3.605,3.6074,3.6119,3.6122,3.6069,3.6069,3.6068,0,3.6134,3.614,3.6151,3.6151,3.6141,3.6146,3.6142,3.6136,3.6136,3.6134,3.6133,3.6131,3.613,3.6128,3.6113,3.6103,3.6121,3.6103,3.6113,3.6114,3.6117,3.6117,3.6161,3.612,3.612,3.612,3.612,0,3.6174,3.6186,3.6168,3.6175,3.6186,3.6171,3.6182,3.6176,3.617,3.6173,3.6156,3.6159,3.6141,3.6142,3.613,3.6136,3.6136,3.6129,3.6126,3.613,3.613,3.6127,3.6124,3.6121,3.6121,3.6121,3.6121,0,3.6217,3.6206,3.6217,3.6206,3.6203,3.6212,3.6202,3.6206,3.6197,3.6202,3.6202,3.6187,3.6186,3.6172,3.6169,3.6161,3.617,3.6164,3.6172,3.6169,3.6179,3.6178,3.6221,3.6225,3.6185,3.6185,3.6185,0,3.6242,3.6251,3.624,3.6242,3.6238,3.6241,3.6241,3.6225,3.6225,3.6218,3.6223,3.6221,3.6218,3.6218,3.6205,3.6202,3.6194,3.621,3.6194,3.6196,3.6191,3.619,3.6189,3.6213,3.6213,3.6214,3.6214,0,3.6286,3.628,3.6281,3.6279,3.6279,3.6276,3.6273,3.6274,3.6257,3.6258,3.6257,3.6255,3.6251,3.6248,3.6242,3.6235,3.622,3.6219,3.6221,3.6224,3.6227,3.6223,3.6178,3.6218,3.6218,3.6217,3.6217,3.6217,3.6319,3.6324,3.6317,3.6318,3.6313,3.631,3.6312,3.6303,3.6303,3.6298,3.6289,3.6289,3.628,3.627,3.6265,3.6263,3.6255,3.6258,3.6258,3.6259,3.626,3.6229,3.6262,3.6262,3.6262,3.6262,3.6262,0,3.636,3.6354,3.6355,3.635,3.6349,3.6337,3.6331,3.6331,3.6332,3.6325,3.6323,3.632,3.6317,3.6304,3.6299,3.6299,3.6292,3.6298,3.6297,3.6295,3.6269,3.6267,3.6304,3.6304,3.6304,3.6304,3.6304,3.6304,3.6381,3.6388,3.638,3.6384,3.6377,3.6378,3.6375,3.6371,3.6365,3.6363,3.636,3.6352,3.6342,3.6335,3.6331,3.6327,3.6324,3.6332,3.6326,3.6301,3.6297,3.6293,3.6291,3.6332,3.6332,3.6351,3.6352,3.6352]}]]